AFR45JJ LFRB-LFPG

Flight info

Callsign AFR45JJ
Flight time 0h 53m
Altitude 28000
Route LGL UN491 UPALO UN585 FEJAC DCT BADUR T120 ANLEV
Aircraft A320/M-SDE2E3FGIJ1RWY/HB1

Departure

Time 2026-05-04 18:01
Airport Brest Bretagne airport (LFRB)

Arrival

Time 2026-05-04 18:54
Airport Charles de Gaulle International Airport (LFPG)
Time Latitude Longitude Altitude Speed Heading
2026-05-04 17:45 48.44418 -4.42031 317 ft 0 kts 161°
2026-05-04 17:53 48.44435 -4.42040 316 ft 4 kts 161°
2026-05-04 17:53 48.44461 -4.42053 317 ft 4 kts 161°
2026-05-04 17:53 48.44487 -4.42066 317 ft 4 kts 162°
2026-05-04 17:54 48.44508 -4.42076 315 ft 1 kts 162°
2026-05-04 17:54 48.44512 -4.42078 316 ft 0 kts 162°
2026-05-04 17:56 48.44507 -4.42075 315 ft 4 kts 154°
2026-05-04 17:56 48.44524 -4.42074 315 ft 6 kts 332°
2026-05-04 17:56 48.44589 -4.42119 317 ft 14 kts 339°
2026-05-04 17:56 48.44691 -4.42195 319 ft 15 kts 292°
2026-05-04 17:57 48.44673 -4.42358 315 ft 16 kts 248°
2026-05-04 17:57 48.44632 -4.42515 316 ft 15 kts 250°
2026-05-04 17:57 48.44597 -4.42664 314 ft 15 kts 250°
2026-05-04 17:57 48.44565 -4.42804 315 ft 13 kts 250°
2026-05-04 17:58 48.44536 -4.42928 315 ft 12 kts 251°
2026-05-04 17:58 48.44502 -4.43081 314 ft 17 kts 251°
2026-05-04 17:58 48.44465 -4.43247 315 ft 16 kts 252°
2026-05-04 17:58 48.44433 -4.43394 316 ft 14 kts 252°
2026-05-04 17:59 48.44403 -4.43530 315 ft 13 kts 251°
2026-05-04 17:59 48.44376 -4.43654 315 ft 12 kts 253°
2026-05-04 17:59 48.44345 -4.43818 313 ft 6 kts 143°
2026-05-04 18:00 48.44344 -4.43775 313 ft 3 kts 81°
2026-05-04 18:00 48.44348 -4.43758 313 ft 1 kts 64°
2026-05-04 18:00 48.44384 -4.43631 315 ft 44 kts 69°
2026-05-04 18:00 48.44569 -4.42831 315 ft 114 kts 71°
2026-05-04 18:01 48.44882 -4.41438 320 ft 166 kts 71°
2026-05-04 18:01 48.45271 -4.39694 812 ft 177 kts 71°
2026-05-04 18:01 48.45755 -4.37980 1604 ft 179 kts 56°
2026-05-04 18:02 48.47594 -4.35544 3218 ft 175 kts 30°
2026-05-04 18:02 48.48705 -4.34753 3829 ft 184 kts 19°
2026-05-04 18:02 48.50040 -4.34392 4165 ft 208 kts
2026-05-04 18:02 48.51557 -4.34425 4557 ft 227 kts
2026-05-04 18:03 48.53024 -4.33369 4979 ft 248 kts 46°
2026-05-04 18:03 48.54063 -4.31172 5594 ft 264 kts 58°
2026-05-04 18:03 48.55006 -4.28751 6498 ft 270 kts 61°
2026-05-04 18:03 48.55945 -4.26266 7403 ft 275 kts 61°
2026-05-04 18:04 48.56910 -4.23749 8347 ft 279 kts 62°
2026-05-04 18:04 48.57907 -4.21221 9276 ft 283 kts 60°
2026-05-04 18:04 48.60035 -4.15977 10535 ft 311 kts 59°
2026-05-04 18:05 48.61215 -4.13113 11004 ft 328 kts 59°
2026-05-04 18:05 48.62437 -4.10163 11757 ft 334 kts 59°
2026-05-04 18:05 48.63677 -4.07175 12575 ft 338 kts 59°
2026-05-04 18:05 48.64930 -4.04147 13391 ft 342 kts 60°
2026-05-04 18:06 48.67492 -3.97932 14720 ft 354 kts 60°
2026-05-04 18:06 48.68679 -3.94657 15388 ft 357 kts 68°
2026-05-04 18:06 48.69712 -3.91221 16076 ft 360 kts 69°
2026-05-04 18:07 48.70732 -3.87745 16802 ft 363 kts 69°
2026-05-04 18:07 48.71750 -3.84225 17516 ft 366 kts 69°
2026-05-04 18:07 48.72758 -3.80719 18198 ft 370 kts 70°
2026-05-04 18:07 48.73806 -3.77077 18809 ft 374 kts 70°
2026-05-04 18:08 48.74853 -3.73454 19408 ft 377 kts 70°
2026-05-04 18:08 48.75908 -3.69804 20018 ft 380 kts 70°
2026-05-04 18:08 48.76973 -3.66119 20629 ft 383 kts 70°
2026-05-04 18:08 48.78049 -3.62401 21231 ft 386 kts 70°
2026-05-04 18:09 48.80221 -3.54874 22417 ft 393 kts 70°
2026-05-04 18:09 48.82424 -3.47208 23524 ft 400 kts 70°
2026-05-04 18:10 48.83535 -3.43324 23986 ft 403 kts 70°
2026-05-04 18:10 48.84654 -3.39407 24437 ft 406 kts 70°
2026-05-04 18:10 48.85766 -3.35521 24883 ft 408 kts 70°
2026-05-04 18:10 48.86898 -3.31553 25324 ft 410 kts 71°
2026-05-04 18:11 48.88032 -3.27562 25760 ft 413 kts 71°
2026-05-04 18:11 48.89173 -3.23542 26176 ft 415 kts 71°
2026-05-04 18:11 48.90318 -3.19502 26588 ft 418 kts 71°
2026-05-04 18:11 48.91470 -3.15435 26998 ft 420 kts 71°
2026-05-04 18:12 48.92626 -3.11348 27399 ft 422 kts 71°
2026-05-04 18:12 48.93790 -3.07232 27800 ft 425 kts 71°
2026-05-04 18:12 48.94960 -3.03090 27971 ft 426 kts 71°
2026-05-04 18:12 48.96117 -2.99006 27995 ft 415 kts 71°
2026-05-04 18:13 48.98372 -2.91003 28001 ft 410 kts 71°
2026-05-04 18:14 49.01700 -2.79038 28007 ft 409 kts 72°
2026-05-04 18:14 49.03916 -2.71065 28002 ft 409 kts 71°
2026-05-04 18:15 49.06130 -2.63082 27958 ft 409 kts 72°
2026-05-04 18:15 49.08342 -2.55090 27959 ft 410 kts 72°
2026-05-04 18:15 49.09449 -2.51081 27971 ft 410 kts 72°
2026-05-04 18:16 49.10554 -2.47064 27979 ft 411 kts 72°
2026-05-04 18:16 49.11652 -2.43059 27973 ft 411 kts 72°
2026-05-04 18:16 49.12757 -2.39020 27977 ft 411 kts 72°
2026-05-04 18:17 49.14955 -2.30957 27984 ft 411 kts 72°
2026-05-04 18:17 49.16054 -2.26925 27991 ft 412 kts 72°
2026-05-04 18:17 49.17714 -2.18676 27966 ft 403 kts 85°
2026-05-04 18:18 49.18166 -2.14446 27975 ft 404 kts 86°
2026-05-04 18:18 49.18612 -2.10211 27976 ft 404 kts 86°
2026-05-04 18:18 49.19053 -2.05966 27977 ft 405 kts 86°
2026-05-04 18:18 49.19491 -2.01710 27979 ft 405 kts 86°
2026-05-04 18:19 49.20368 -1.93199 27981 ft 406 kts 86°
2026-05-04 18:19 49.20806 -1.88937 27981 ft 406 kts 86°
2026-05-04 18:19 49.21244 -1.84673 27976 ft 406 kts 86°
2026-05-04 18:20 49.21681 -1.80407 27978 ft 406 kts 86°
2026-05-04 18:20 49.22115 -1.76141 27950 ft 406 kts 86°
2026-05-04 18:20 49.22551 -1.71869 27955 ft 407 kts 86°
2026-05-04 18:20 49.22987 -1.67593 27959 ft 407 kts 86°
2026-05-04 18:21 49.23422 -1.63310 27966 ft 407 kts 86°
2026-05-04 18:21 49.23853 -1.59028 27968 ft 408 kts 86°
2026-05-04 18:21 49.24283 -1.54738 27971 ft 408 kts 86°
2026-05-04 18:21 49.24711 -1.50443 27972 ft 408 kts 86°
2026-05-04 18:22 49.25135 -1.46147 27977 ft 408 kts 86°
2026-05-04 18:22 49.25554 -1.41847 27982 ft 408 kts 86°
2026-05-04 18:22 49.25974 -1.37549 27983 ft 408 kts 86°
2026-05-04 18:22 49.26392 -1.33250 27984 ft 409 kts 86°
2026-05-04 18:23 49.26811 -1.28947 27964 ft 409 kts 86°
2026-05-04 18:23 49.27229 -1.24637 27971 ft 409 kts 86°
2026-05-04 18:23 49.27645 -1.20320 27975 ft 410 kts 86°
2026-05-04 18:23 49.28062 -1.16002 27978 ft 410 kts 86°
2026-05-04 18:24 49.28479 -1.11678 27980 ft 411 kts 86°
2026-05-04 18:24 49.28895 -1.07353 27982 ft 411 kts 86°
2026-05-04 18:24 49.29307 -1.03029 27985 ft 411 kts 86°
2026-05-04 18:24 49.29718 -0.98699 27986 ft 411 kts 86°
2026-05-04 18:25 49.30128 -0.94370 27983 ft 410 kts 86°
2026-05-04 18:25 49.30538 -0.90044 27986 ft 410 kts 86°
2026-05-04 18:25 49.30943 -0.85717 27968 ft 410 kts 86°
2026-05-04 18:25 49.31346 -0.81394 27972 ft 410 kts 86°
2026-05-04 18:26 49.31745 -0.77066 27975 ft 410 kts 86°
2026-05-04 18:26 49.32140 -0.72738 27978 ft 410 kts 86°
2026-05-04 18:26 49.32536 -0.68408 27978 ft 410 kts 86°
2026-05-04 18:26 49.32933 -0.64074 27980 ft 411 kts 86°
2026-05-04 18:27 49.33327 -0.59795 27984 ft 411 kts 86°
2026-05-04 18:27 49.33726 -0.55460 27985 ft 411 kts 86°
2026-05-04 18:27 49.34123 -0.51119 27984 ft 411 kts 86°
2026-05-04 18:27 49.34516 -0.46784 27984 ft 411 kts 86°
2026-05-04 18:28 49.34907 -0.42444 27985 ft 411 kts 86°
2026-05-04 18:28 49.35294 -0.38096 27985 ft 411 kts 87°
2026-05-04 18:28 49.35676 -0.33752 27985 ft 411 kts 87°
2026-05-04 18:28 49.36057 -0.29406 27986 ft 411 kts 87°
2026-05-04 18:29 49.36331 -0.25060 27986 ft 408 kts 94°
2026-05-04 18:29 49.36193 -0.20745 27989 ft 404 kts 100°
2026-05-04 18:29 49.35922 -0.16461 27989 ft 404 kts 100°
2026-05-04 18:29 49.35648 -0.12173 27990 ft 404 kts 100°
2026-05-04 18:30 49.35189 -0.04995 27990 ft 404 kts 100°
2026-05-04 18:30 49.34917 -0.00715 27981 ft 404 kts 99°
2026-05-04 18:30 49.34645 0.03571 27968 ft 404 kts 99°
2026-05-04 18:31 49.34374 0.07820 27833 ft 407 kts 99°
2026-05-04 18:31 49.34096 0.12135 27564 ft 406 kts 99°
2026-05-04 18:31 49.33815 0.16433 27299 ft 405 kts 99°
2026-05-04 18:31 49.33531 0.20715 27032 ft 403 kts 99°
2026-05-04 18:32 49.33244 0.24980 26773 ft 402 kts 99°
2026-05-04 18:32 49.32957 0.29220 26454 ft 397 kts 99°
2026-05-04 18:32 49.32676 0.33417 25930 ft 394 kts 98°
2026-05-04 18:32 49.32397 0.37574 25429 ft 390 kts 98°
2026-05-04 18:33 49.32121 0.41694 24934 ft 387 kts 98°
2026-05-04 18:33 49.31846 0.45785 24441 ft 384 kts 98°
2026-05-04 18:33 49.31594 0.49852 23964 ft 382 kts 95°
2026-05-04 18:33 49.31542 0.53937 23422 ft 385 kts 93°
2026-05-04 18:34 49.31502 0.58031 22849 ft 384 kts 93°
2026-05-04 18:34 49.31459 0.62106 22331 ft 381 kts 93°
2026-05-04 18:34 49.31411 0.66155 21807 ft 378 kts 93°
2026-05-04 18:34 49.31362 0.70171 21289 ft 376 kts 93°
2026-05-04 18:35 49.31313 0.74160 20781 ft 373 kts 93°
2026-05-04 18:35 49.31263 0.78122 20272 ft 371 kts 93°
2026-05-04 18:35 49.31212 0.82063 19768 ft 369 kts 93°
2026-05-04 18:35 49.31161 0.85969 19312 ft 365 kts 93°
2026-05-04 18:36 49.31109 0.89845 18865 ft 362 kts 93°
2026-05-04 18:36 49.31057 0.93700 18345 ft 361 kts 93°
2026-05-04 18:36 49.31005 0.97534 17796 ft 360 kts 93°
2026-05-04 18:36 49.30953 1.01340 17408 ft 354 kts 92°
2026-05-04 18:37 49.30898 1.05114 16869 ft 353 kts 92°
2026-05-04 18:37 49.30841 1.08851 16393 ft 349 kts 92°
2026-05-04 18:37 49.30783 1.12540 15788 ft 342 kts 92°
2026-05-04 18:37 49.30723 1.16178 15341 ft 341 kts 92°
2026-05-04 18:38 49.30662 1.19797 14881 ft 339 kts 92°
2026-05-04 18:38 49.30602 1.23398 14443 ft 337 kts 92°
2026-05-04 18:38 49.30544 1.26976 14049 ft 334 kts 92°
2026-05-04 18:38 49.30484 1.30531 13585 ft 333 kts 92°
2026-05-04 18:39 49.30422 1.34056 13092 ft 331 kts 92°
2026-05-04 18:39 49.30358 1.37555 12531 ft 324 kts 92°
2026-05-04 18:39 49.30295 1.41002 12102 ft 323 kts 91°
2026-05-04 18:39 49.30233 1.44431 11674 ft 321 kts 91°
2026-05-04 18:40 49.30173 1.47837 11268 ft 318 kts 91°
2026-05-04 18:40 49.30112 1.51146 11135 ft 305 kts 91°
2026-05-04 18:40 49.30050 1.54332 10994 ft 294 kts 91°
2026-05-04 18:40 49.29989 1.57426 10750 ft 288 kts 91°
2026-05-04 18:41 49.29890 1.60471 10500 ft 285 kts 93°
2026-05-04 18:41 49.29758 1.63493 10255 ft 283 kts 94°
2026-05-04 18:41 49.29615 1.66497 10006 ft 282 kts 94°
2026-05-04 18:41 49.29471 1.69490 9835 ft 281 kts 93°
2026-05-04 18:42 49.29144 1.72435 9701 ft 282 kts 108°
2026-05-04 18:42 49.28237 1.75078 9568 ft 282 kts 127°
2026-05-04 18:42 49.26820 1.77144 9436 ft 283 kts 145°
2026-05-04 18:42 49.25059 1.78502 9303 ft 285 kts 155°
2026-05-04 18:43 49.23241 1.79715 9164 ft 284 kts 155°
2026-05-04 18:43 49.21430 1.80929 9044 ft 284 kts 155°
2026-05-04 18:43 49.19627 1.82146 8946 ft 284 kts 154°
2026-05-04 18:43 49.17823 1.83369 8777 ft 283 kts 154°
2026-05-04 18:44 49.16024 1.84587 8589 ft 282 kts 154°
2026-05-04 18:44 49.14837 1.85389 8469 ft 282 kts 154°
2026-05-04 18:44 49.12441 1.87001 8222 ft 281 kts 154°
2026-05-04 18:44 49.10655 1.88198 8042 ft 280 kts 155°
2026-05-04 18:45 49.08872 1.89391 7850 ft 279 kts 155°
2026-05-04 18:45 49.07097 1.90579 7669 ft 279 kts 154°
2026-05-04 18:45 49.05326 1.91768 7481 ft 278 kts 155°
2026-05-04 18:45 49.03559 1.92956 7305 ft 277 kts 155°
2026-05-04 18:46 49.01842 1.94156 7123 ft 266 kts 148°
2026-05-04 18:46 49.00452 1.95879 6955 ft 252 kts 129°
2026-05-04 18:46 48.99550 1.98093 6752 ft 242 kts 110°
2026-05-04 18:46 48.99104 2.00507 6547 ft 233 kts 102°
2026-05-04 18:47 48.98730 2.02867 6352 ft 226 kts 103°
2026-05-04 18:47 48.98359 2.05154 6153 ft 219 kts 103°
2026-05-04 18:47 48.97996 2.07393 5969 ft 217 kts 103°
2026-05-04 18:47 48.97636 2.09627 5780 ft 217 kts 103°
2026-05-04 18:48 48.97277 2.11847 5602 ft 216 kts 103°
2026-05-04 18:48 48.96977 2.14078 5417 ft 214 kts 91°
2026-05-04 18:48 48.97063 2.16343 5266 ft 214 kts 84°
2026-05-04 18:48 48.97185 2.18595 5154 ft 214 kts 84°
2026-05-04 18:49 48.97311 2.20849 4938 ft 210 kts 84°
2026-05-04 18:49 48.97436 2.23053 4678 ft 208 kts 84°
2026-05-04 18:49 48.97560 2.25244 4395 ft 208 kts 84°
2026-05-04 18:49 48.97684 2.27429 4122 ft 207 kts 84°
2026-05-04 18:50 48.97806 2.29607 3838 ft 206 kts 84°
2026-05-04 18:50 48.97928 2.31778 3564 ft 205 kts 84°
2026-05-04 18:50 48.98048 2.33919 3319 ft 201 kts 84°
2026-05-04 18:50 48.98164 2.36003 3029 ft 194 kts 84°
2026-05-04 18:51 48.98274 2.37976 2769 ft 180 kts 84°
2026-05-04 18:51 48.98375 2.39807 2536 ft 168 kts 84°
2026-05-04 18:51 48.98470 2.41523 2320 ft 158 kts 84°
2026-05-04 18:51 48.98558 2.43130 2106 ft 147 kts 84°
2026-05-04 18:52 48.98642 2.44645 1924 ft 140 kts 84°
2026-05-04 18:52 48.98722 2.46102 1747 ft 137 kts 84°
2026-05-04 18:52 48.98801 2.47540 1560 ft 136 kts 84°
2026-05-04 18:52 48.98879 2.48968 1372 ft 135 kts 84°
2026-05-04 18:53 48.98956 2.50392 1183 ft 135 kts 84°
2026-05-04 18:53 48.99034 2.51816 1004 ft 135 kts 84°
2026-05-04 18:53 48.99111 2.53238 819 ft 135 kts 84°
2026-05-04 18:53 48.99188 2.54657 642 ft 134 kts 84°
2026-05-04 18:54 48.99264 2.56074 463 ft 134 kts 84°
2026-05-04 18:54 48.99340 2.57465 359 ft 122 kts 85°
2026-05-04 18:54 48.99384 2.58308 357 ft 48 kts 85°
2026-05-04 18:54 48.99457 2.58655 359 ft 28 kts 68°
2026-05-04 18:55 48.99539 2.58918 357 ft 21 kts 63°
2026-05-04 18:55 48.99613 2.59422 354 ft 27 kts 82°
2026-05-04 18:55 48.99622 2.59520 356 ft 7 kts 82°
2026-05-04 18:56 48.99628 2.59589 359 ft 6 kts 83°
2026-05-04 18:56 48.99635 2.59647 356 ft 5 kts 75°
2026-05-04 18:56 48.99654 2.59684 356 ft 4 kts 36°
2026-05-04 18:56 48.99669 2.59683 356 ft 2 kts 358°
2026-05-04 18:57 48.99686 2.59682 354 ft 7 kts 358°
2026-05-04 18:57 48.99804 2.59677 360 ft 21 kts 358°
2026-05-04 18:57 48.99946 2.59659 359 ft 20 kts 354°
2026-05-04 18:57 49.00093 2.59643 357 ft 22 kts 356°
2026-05-04 18:58 49.00246 2.59627 354 ft 19 kts 356°
2026-05-04 18:58 49.00304 2.59626 354 ft 3 kts 37°
2026-05-04 18:58 49.00316 2.59659 355 ft 5 kts 66°
2026-05-04 18:58 49.00325 2.59778 354 ft 10 kts 88°
2026-05-04 18:59 49.00328 2.59897 354 ft 7 kts 88°
2026-05-04 18:59 49.00347 2.59921 357 ft 4 kts 11°
2026-05-04 18:59 49.00380 2.59920 354 ft 6 kts 351°
2026-05-04 18:59 49.00389 2.59918 354 ft 1 kts 351°
2026-05-04 19:00 49.00398 2.59918 354 ft 3 kts
2026-05-04 19:00 49.00410 2.59939 357 ft 2 kts 63°
2026-05-04 19:00 49.00414 2.59962 357 ft 2 kts 81°
2026-05-04 19:00 49.00415 2.59983 354 ft 2 kts 85°
2026-05-04 19:01 49.00416 2.60002 354 ft 0 kts 86°